Location: Ascanio
(10.1500°N, 66.9000°W)
Time: 00:09:16
(UTC+00:00)

Daily predictions for brighter satellites

Satellite Brightness Start Highest point End
(mag) Time Altitude Azimuth Time Altitude Azimuth Time Altitude Azimuth
GPS 2-14 Rocket1 2.7 00:00:14 10° W 00:03:55 57° SSW 00:04:30 49° SSE
USA 276 1.9 00:02:21 10° NW 00:05:12 77° WSW 00:05:12 77° WSW
CSL-04 Debris 4.4 00:05:19 34° SE 00:07:13 48° ENE 00:12:24 10° N
Cosmos 1400 Rocket 2.8 00:03:46 10° N 00:07:41 80° W 00:09:32 30° S
H-2A R/B 1.8 00:06:46 10° NNE 00:10:51 68° ESE 00:12:21 38° S
Cosmos 841 Rocket 3.3 00:09:41 10° N 00:14:51 81° ENE 00:16:48 39° SSE
deb Chang Zheng 4 3.3 00:15:17 50° SSE 00:16:19 90° SW 00:20:26 10° NNW
Cosmos 1151 Rocket 4.1 00:13:58 10° SSW 00:18:03 43° W 00:22:06 10° NNW
Cosmos 2098 Rocket 2.9 00:15:56 10° NNW 00:18:36 48° W 00:18:36 48° W
BREEZE-M DEB (TANK) 4.1 00:14:27 10° SSW 00:18:48 49° ESE 00:35:38 10° NE
Cosmos 1503 Rocket 3.8 00:20:17 20° S 00:23:55 76° ESE 00:29:09 10° NNE
OBJECT-B 2.4 00:28:06 30° NW 00:28:06 30° NW 00:29:57 10° NNW
Cosmos 1072 Rocket 4.5 00:26:39 51° ESE 00:27:13 52° E 00:33:05 10° NNE
CZ-4 R/B 3.4 00:24:27 11° SSW 00:27:23 25° W 00:30:41 10° NW
Cosmos 2297 Rocket 3.5 00:24:02 10° NNE 00:27:27 24° NE 00:27:27 24° NE
NOSS 3-2 (A) 4.3 00:25:20 10° NNW 00:33:47 62° ENE 00:36:29 46° ESE
H-2A R/B 2.7 00:34:31 70° N 00:34:31 70° N 00:38:25 10° N
SJ-6B 3.7 00:35:26 42° N 00:35:26 42° N 00:38:01 10° N
SJ 16-02 3.9 00:38:54 11° NNE 00:38:54 11° NNE 00:39:03 10° NNE
BLOCK DM-SL R/B 3.3 00:22:41 10° W 00:35:48 33° SSW 00:36:18 33° S
Meteor 1-5 Rocket 4.0 00:31:49 10° N 00:37:06 82° W 00:38:00 62° S
Aurora 2 Rocket 3.5 00:35:26 10° WNW 00:38:07 33° W 00:38:07 33° W
Meteor 1-27 Rocket 3.7 00:42:14 47° SSW 00:43:56 80° W 00:49:42 10° N
ARIANE 5 R/B 3.6 00:22:35 10° WSW 00:46:57 40° SSW 00:47:40 39° S
Cosmos 2278 3.8 00:50:41 67° NNE 00:50:41 67° NNE 00:55:32 10° NNE
H-2A R/B 4.0 00:50:57 10° W 00:51:02 10° W 00:51:02 10° W
Sakura Rocket 4.3 00:48:44 10° NW 00:52:38 38° NNW 00:52:38 38° NNW
GPS 2-17 Rocket1 4.5 00:50:55 10° W 00:53:54 33° WSW 00:53:54 33° WSW
Resurs 01 Rocket 4.3 01:01:51 11° NNE 01:01:51 11° NNE 01:02:03 10° N
CENTAUR R/B 3.2 00:49:19 10° NNW 00:58:22 81° ENE 00:59:57 65° SE
USA 234 3.2 00:59:15 69° SSW 00:59:50 74° SW 01:06:23 10° NW
Ariane 3 Deb 4.5 00:59:34 10° W 01:03:22 27° WSW 01:03:22 27° WSW
H-2A R/B (2) 3.2 01:06:43 10° WNW 01:08:24 35° WNW 01:08:24 35° WNW
USA 238 DEB 4.2 01:05:07 10° NNW 01:11:41 56° NE 01:11:41 56° NE
USA 238 4.2 01:05:15 10° NNW 01:11:46 55° NE 01:11:46 55° NE
Milstar 3 Cent rocket 3.8 01:00:59 10° WNW 01:17:14 56° NNE 01:19:04 50° NE
Centaur AC-72 3.3 01:29:53 10° WNW 01:34:37 67° WNW 01:34:37 67° WNW
Cosmos 2227 Rocket 4.0 01:30:14 10° NNW 01:32:27 25° NNW 01:32:27 25° NNW
SeaSat 1 3.8 07:30:20 10° NNE 07:33:18 36° NE 07:33:18 36° NE
ATLAS 3B CENTAUR R/B 4.0 07:42:53 14° NNE 07:42:53 14° NNE 07:44:03 10° NE
Lacrosse 4 Rocket 4.0 07:55:25 13° N 07:55:25 13° N 07:55:59 10° N
ARIANE 5 R/B 2.9 07:58:12 10° N 08:02:02 52° NNW 08:02:02 52° NNW
Hubble Space Telescope 3.5 08:04:35 11° SE 08:04:35 11° SE 08:05:01 10° SE
Cosmos 864 Rocket 4.4 07:58:09 10° N 08:04:16 84° E 08:06:23 44° S
GPS 2-15 Rocket1 4.0 08:12:04 39° NNW 08:12:55 44° NNE 08:17:26 10° E
Cosmos 1602 Rocket 3.6 08:13:51 75° NNE 08:13:51 75° NNE 08:17:57 10° N
Cosmos 1110 Rocket 4.2 08:12:46 46° SSE 08:14:05 63° ESE 08:19:10 10° NNE
Cosmos 1607 3.9 08:14:44 52° SSW 08:16:26 89° ESE 08:22:43 10° NNE
Cosmos 1484 Rocket 3.0 08:14:03 10° NNE 08:17:47 68° E 08:17:47 68° E
ALOS 3.8 08:14:55 10° NNW 08:17:03 23° NW 08:17:03 23° NW
Cosmos 2263 4.2 08:15:04 10° NNW 08:20:47 81° ENE 08:26:33 10° SSE
Cosmos 1331 Rocket 4.0 08:24:19 40° S 08:26:14 78° ESE 08:31:26 10° NNE
CZ-4B R/B 4.3 08:21:55 10° NNE 08:27:01 51° ESE 08:31:24 14° S
TSX-5 4.5 08:27:39 35° ESE 08:27:48 36° ESE 08:30:42 10° NE
Meteor 2-20 4.5 08:26:35 46° SW 08:27:57 55° W 08:33:58 10° N
Cosmos 2366 rocket 4.3 08:30:23 10° NNW 08:36:12 44° W 08:38:10 34° SW
CZ-2C R/B 4.0 08:33:29 10° NNW 08:35:52 19° NW 08:35:52 19° NW
Spot 4 Rocket 4.0 08:35:03 10° N 08:40:05 62° WNW 08:42:15 33° SW
H-2A R/B 3.9 08:37:30 10° NNE 08:40:53 38° E 08:44:02 11° SSE
Meteor 2-20 Rocket 4.4 08:37:59 26° SSW 08:41:28 63° W 08:47:33 10° N
Landsat 4 3.6 08:39:00 10° NNE 08:42:38 77° ESE 08:44:13 32° S
YAOGAN 6 2.7 08:39:02 10° NNE 08:42:39 75° E 08:44:19 30° S
Cosmos 2369 Rocket 2.6 08:37:42 10° NW 08:42:47 37° WSW 08:43:55 33° SW
Cosmos 1656 Rocket 3.8 08:39:16 10° NNW 08:44:27 47° WSW 08:49:41 10° S
SL-08 R/B 3.9 08:41:31 10° SSE 08:46:00 56° ENE 08:50:29 10° N
DELTA 2 DEB (DPAF) 4.0 08:44:05 10° S 08:48:28 68° WSW 08:52:52 10° NNW
FALCON 9 R/B 1.9 08:42:50 10° WNW 08:52:18 82° SW 08:55:38 10° SE
CZ-4C R/B 4.0 08:51:14 10° SSE 08:54:36 49° ENE 08:58:03 10° N
Cosmos 1825 Rocket 3.6 08:58:55 15° SSW 09:02:26 59° W 09:06:47 10° N
Meteor 1-27 4.2 08:59:28 10° NNW 09:05:03 61° W 09:10:33 10° S
Atlas Centaur 2 3.2 09:00:06 19° SW 09:05:49 64° SSE 09:14:12 10° ENE
Cosmos 407 Rocket 4.3 09:02:22 10° NW 09:06:46 28° W 09:11:07 10° SSW
Cosmos 1869 3.5 09:03:31 10° NNW 09:07:12 45° W 09:10:51 10° SSW
SJ-12 4.2 09:03:40 10° NNE 09:07:41 69° ESE 09:11:44 10° S
Cosmos 2239 Rocket 4.5 09:01:30 10° N 09:07:48 79° W 09:14:07 10° S
CZ-3C R/B 3.4 09:05:03 14° WNW 09:08:15 48° N 09:26:59 10° ENE
Cosmos 1633 4.2 09:10:04 17° WNW 09:10:04 17° WNW 09:12:08 10° NW
CZ-2C R/B 3.5 09:04:54 10° NNE 09:10:30 69° ESE 09:15:49 10° S
Genesis I 3.1 09:06:47 10° NNW 09:10:41 87° WSW 09:14:28 10° SSE
Cosmos 2058 3.0 09:07:39 12° SSW 09:11:18 52° W 09:15:17 10° N
DELTA 4 R/B 3.9 09:13:23 10° NNW 09:14:21 11° N 09:15:34 10° NNE
CZ-2C R/B 3.8 09:14:25 10° NNW 09:17:27 25° WNW 09:19:29 16° WSW
Cosmos 1606 4.2 09:14:06 10° NNE 09:17:36 38° E 09:21:07 10° SSE
Cosmos 192 4.3 09:12:59 10° SSW 09:17:52 67° WNW 09:22:45 10° N
COSMOS 2406 3.3 09:14:30 10° SSW 09:20:13 86° ESE 09:25:59 10° NNE
Delta 168 3.8 09:18:39 12° SSW 09:20:59 25° SSE 09:23:37 10° E
Ariane H10 4.3 09:17:40 15° SW 09:21:08 43° SSE 09:39:31 10° E
Envisat 3.8 09:22:47 10° NNW 09:27:17 33° WNW 09:31:46 10° SW
Cosmos 1954 Rocket 4.3 09:26:07 10° NNW 09:31:07 44° W 09:36:07 10° S
CZ-3 R/B 4.3 09:07:11 10° WNW 09:32:36 37° N 09:40:13 10° ENE
ARIANE 5 R/B 3.4 09:21:07 11° WSW 09:32:54 39° SSW 09:36:05 10° ESE
Haruka 3.3 09:29:18 10° WNW 09:35:13 37° SW 09:38:24 10° SSE
Cosmos 1833 Rocket 3.5 09:32:47 10° SW 09:37:41 31° WNW 09:42:35 10° N
CZ-4B R/B 3.8 09:34:37 10° N 09:38:26 89° WNW 09:42:25 10° SSW
ATLAS 3B CENTAUR R/B 4.3 09:40:33 10° NNW 09:43:31 15° N 09:47:26 10° NE
Hubble Space Telescope 0.9 09:40:20 10° SW 09:44:26 72° SSE 09:48:32 10° ENE
Meteor 2-3 Rocket 4.1 09:39:13 10° S 09:44:59 73° E 09:50:44 10° N
ARIANE 44L R/B 4.4 10:22:46 10° W 10:47:38 55° SSW 10:51:44 10° ESE
